MSR847 HECA-GMMN

Flight info

Callsign MSR847
Flight time N/A
Altitude 38000
Route CVO L617 NABSI M872 METRU/N0467F240 P868 ARLOS/N0506F300 P868 VANIX L874 GODAK M980 GZO L30 OMENI/N0484F400 DCT DIMAO/N0464F240 W254 CSO A31 BNA A411 ORSUP/N0421F180 A411 FES R975 SADIC
Aircraft B789/H-SDE1E2E3FGHIJ2J3J4J5M1RWXY/LB1D1

Departure

Time 2026-05-08 04:42
Airport Cairo International Airport (HECA)

Arrival

Time N/A
Airport Mohammed V International Airport (GMMN)
Time Latitude Longitude Altitude Speed Heading
2026-05-08 04:00 30.10785 31.39535 380 ft 0 kts 75°
2026-05-08 04:29 30.10780 31.39514 379 ft 4 kts 76°
2026-05-08 04:29 30.10773 31.39483 379 ft 4 kts 77°
2026-05-08 04:30 30.10769 31.39455 379 ft 3 kts 91°
2026-05-08 04:30 30.10772 31.39441 379 ft 2 kts 130°
2026-05-08 04:30 30.10781 31.39433 379 ft 2 kts 160°
2026-05-08 04:30 30.10792 31.39430 379 ft 2 kts 166°
2026-05-08 04:31 30.10793 31.39429 380 ft 0 kts 166°
2026-05-08 04:34 30.10792 31.39430 380 ft 1 kts 166°
2026-05-08 04:34 30.10783 31.39432 380 ft 2 kts 166°
2026-05-08 04:34 30.10767 31.39437 380 ft 3 kts 165°
2026-05-08 04:35 30.10743 31.39444 380 ft 4 kts 165°
2026-05-08 04:35 30.10712 31.39454 380 ft 5 kts 165°
2026-05-08 04:35 30.10688 31.39462 379 ft 6 kts 165°
2026-05-08 04:35 30.10646 31.39478 380 ft 7 kts 154°
2026-05-08 04:36 30.10621 31.39510 379 ft 5 kts 112°
2026-05-08 04:36 30.10615 31.39550 379 ft 5 kts 91°
2026-05-08 04:36 30.10620 31.39596 379 ft 6 kts 79°
2026-05-08 04:36 30.10629 31.39648 379 ft 7 kts 81°
2026-05-08 04:37 30.10621 31.39702 379 ft 6 kts 119°
2026-05-08 04:37 30.10586 31.39731 379 ft 6 kts 157°
2026-05-08 04:37 30.10540 31.39748 379 ft 8 kts 164°
2026-05-08 04:37 30.10484 31.39767 379 ft 9 kts 164°
2026-05-08 04:38 30.10420 31.39788 379 ft 10 kts 164°
2026-05-08 04:38 30.10357 31.39800 379 ft 5 kts 193°
2026-05-08 04:38 30.10349 31.39794 379 ft 1 kts 215°
2026-05-08 04:38 30.10329 31.39772 379 ft 10 kts 231°
2026-05-08 04:39 30.10278 31.39690 379 ft 13 kts 232°
2026-05-08 04:39 30.10223 31.39616 379 ft 11 kts 228°
2026-05-08 04:39 30.10158 31.39583 379 ft 10 kts 169°
2026-05-08 04:39 30.10101 31.39621 379 ft 10 kts 142°
2026-05-08 04:40 30.10047 31.39674 379 ft 10 kts 139°
2026-05-08 04:40 30.10010 31.39743 379 ft 10 kts 106°
2026-05-08 04:40 30.10004 31.39823 379 ft 10 kts 90°
2026-05-08 04:40 30.10016 31.39891 379 ft 7 kts 62°
2026-05-08 04:41 30.10027 31.39909 379 ft 0 kts 50°
2026-05-08 04:41 30.10031 31.39914 379 ft 1 kts 50°
2026-05-08 04:41 30.10066 31.39963 379 ft 21 kts 49°
2026-05-08 04:41 30.10317 31.40296 380 ft 95 kts 48°
2026-05-08 04:42 30.10928 31.41104 382 ft 169 kts 49°
2026-05-08 04:42 30.11737 31.42235 1043 ft 177 kts 53°
2026-05-08 04:42 30.12453 31.43332 2070 ft 169 kts 51°
2026-05-08 04:42 30.13209 31.44362 2863 ft 164 kts 46°
2026-05-08 04:43 30.14067 31.45271 3545 ft 170 kts 35°
2026-05-08 04:43 30.15155 31.45897 4102 ft 183 kts 16°
2026-05-08 04:43 30.16487 31.46054 4530 ft 207 kts
2026-05-08 04:43 30.17992 31.45713 4818 ft 237 kts 342°
2026-05-08 04:44 30.19447 31.44729 5531 ft 245 kts 323°
2026-05-08 04:44 30.20586 31.43243 6360 ft 251 kts 306°
2026-05-08 04:44 30.21304 31.41391 7111 ft 257 kts 289°
2026-05-08 04:44 30.21529 31.39349 7835 ft 263 kts 273°
2026-05-08 04:45 30.21675 31.37248 8498 ft 262 kts 291°
2026-05-08 04:45 30.22652 31.35533 9261 ft 256 kts 314°
2026-05-08 04:45 30.23903 31.34060 9978 ft 258 kts 317°
2026-05-08 04:45 30.25162 31.32554 10517 ft 268 kts 315°
2026-05-08 04:46 30.26517 31.30893 10651 ft 298 kts 315°
2026-05-08 04:46 30.28022 31.29074 10771 ft 327 kts 315°
2026-05-08 04:46 30.29664 31.27107 11110 ft 344 kts 315°
2026-05-08 04:46 30.31326 31.25109 11953 ft 346 kts 314°
2026-05-08 04:47 30.33007 31.23081 12695 ft 351 kts 314°
2026-05-08 04:47 30.34708 31.21029 13459 ft 355 kts 314°
2026-05-08 04:47 30.36428 31.18956 14165 ft 359 kts 314°
2026-05-08 04:47 30.38170 31.16855 14849 ft 362 kts 314°
2026-05-08 04:48 30.39921 31.14741 15523 ft 366 kts 313°
2026-05-08 04:48 30.41692 31.12602 16182 ft 369 kts 313°
2026-05-08 04:48 30.43480 31.10441 16827 ft 372 kts 313°
2026-05-08 04:48 30.45281 31.08264 17463 ft 376 kts 313°
2026-05-08 04:49 30.47072 31.06097 18077 ft 379 kts 313°
2026-05-08 04:49 30.48901 31.03883 18658 ft 382 kts 313°
2026-05-08 04:49 30.50747 31.01647 19175 ft 385 kts 313°
2026-05-08 04:49 30.52612 30.99387 19702 ft 388 kts 313°
2026-05-08 04:50 30.54485 30.97116 20216 ft 391 kts 313°
2026-05-08 04:50 30.56371 30.94828 20718 ft 394 kts 313°
2026-05-08 04:50 30.58273 30.92518 21197 ft 397 kts 313°
2026-05-08 04:50 30.60185 30.90196 21674 ft 400 kts 313°
2026-05-08 04:51 30.62113 30.87852 22119 ft 403 kts 313°
2026-05-08 04:51 30.64055 30.85491 22557 ft 406 kts 313°
2026-05-08 04:51 30.66010 30.83112 23000 ft 408 kts 313°
2026-05-08 04:51 30.67977 30.80716 23443 ft 411 kts 313°
2026-05-08 04:52 30.69958 30.78303 23831 ft 414 kts 313°
2026-05-08 04:52 30.71924 30.75904 24167 ft 416 kts 313°
2026-05-08 04:52 30.73927 30.73461 24515 ft 418 kts 313°
2026-05-08 04:52 30.75941 30.71001 24853 ft 421 kts 313°
2026-05-08 04:53 30.77963 30.68532 25187 ft 423 kts 313°
2026-05-08 04:53 30.79996 30.66046 25499 ft 425 kts 313°
2026-05-08 04:53 30.82037 30.63550 25844 ft 427 kts 313°
2026-05-08 04:53 30.84089 30.61037 26158 ft 429 kts 313°
2026-05-08 04:54 30.86151 30.58511 26497 ft 431 kts 313°
2026-05-08 04:54 30.88225 30.55969 26795 ft 434 kts 313°
2026-05-08 04:54 30.90307 30.53415 27121 ft 436 kts 313°
2026-05-08 04:54 30.92401 30.50845 27451 ft 438 kts 313°
2026-05-08 04:55 30.94506 30.48260 27767 ft 440 kts 313°
2026-05-08 04:55 30.96619 30.45662 28094 ft 443 kts 313°
2026-05-08 04:55 30.98743 30.43050 28434 ft 445 kts 313°
2026-05-08 04:55 31.00878 30.40423 28726 ft 448 kts 313°
2026-05-08 04:56 31.03026 30.37777 29071 ft 450 kts 313°
2026-05-08 04:56 31.05184 30.35117 29362 ft 453 kts 313°
2026-05-08 04:56 31.07334 30.32418 29697 ft 454 kts 309°
2026-05-08 04:56 31.09009 30.29561 29965 ft 457 kts 298°
2026-05-08 04:57 31.10263 30.26247 30263 ft 460 kts 288°
2026-05-08 04:57 31.11251 30.22686 30476 ft 463 kts 288°
2026-05-08 04:57 31.12229 30.19100 30781 ft 464 kts 288°
2026-05-08 04:57 31.13199 30.15506 31077 ft 466 kts 288°
2026-05-08 04:58 31.14182 30.11899 31373 ft 467 kts 288°
2026-05-08 04:58 31.15173 30.08274 31652 ft 469 kts 288°
2026-05-08 04:58 31.16150 30.04684 31940 ft 471 kts 288°
2026-05-08 04:58 31.17139 30.01031 32235 ft 472 kts 288°
2026-05-08 04:59 31.18147 29.97376 32508 ft 474 kts 291°
2026-05-08 04:59 31.19580 29.93905 32759 ft 476 kts 302°
2026-05-08 04:59 31.21480 29.90722 33006 ft 478 kts 306°
2026-05-08 04:59 31.23436 29.87578 33268 ft 480 kts 306°
2026-05-08 05:00 31.25415 29.84424 33524 ft 481 kts 306°
2026-05-08 05:00 31.27389 29.81268 33862 ft 481 kts 305°
2026-05-08 05:00 31.29357 29.78107 34227 ft 479 kts 305°
2026-05-08 05:00 31.31316 29.74958 34571 ft 478 kts 305°
2026-05-08 05:01 31.33272 29.71819 34922 ft 476 kts 305°
2026-05-08 05:01 31.35217 29.68694 35299 ft 474 kts 305°
2026-05-08 05:01 31.37152 29.65581 35671 ft 472 kts 305°
2026-05-08 05:01 31.39078 29.62478 36015 ft 470 kts 305°
2026-05-08 05:02 31.40997 29.59385 36340 ft 469 kts 306°
2026-05-08 05:02 31.42885 29.56340 36723 ft 466 kts 306°
2026-05-08 05:02 31.44784 29.53276 37060 ft 464 kts 306°
2026-05-08 05:02 31.46677 29.50218 37423 ft 462 kts 306°
2026-05-08 05:03 31.48558 29.47177 37762 ft 461 kts 306°
2026-05-08 05:03 31.50435 29.44141 38108 ft 459 kts 306°
2026-05-08 05:03 31.54207 29.38031 38132 ft 461 kts 306°
2026-05-08 05:04 31.57940 29.31975 38129 ft 456 kts 306°
2026-05-08 05:04 31.61641 29.25950 38128 ft 455 kts 306°
2026-05-08 05:05 31.65222 29.20101 38139 ft 455 kts 306°
2026-05-08 05:05 31.68913 29.14072 38138 ft 454 kts 306°
2026-05-08 05:06 31.72593 29.08045 38150 ft 454 kts 306°
2026-05-08 05:06 31.76271 29.02019 38156 ft 453 kts 306°
2026-05-08 05:07 31.79939 28.95999 38159 ft 453 kts 306°
2026-05-08 05:07 31.83601 28.89979 38160 ft 452 kts 306°
2026-05-08 05:08 31.87255 28.83963 38161 ft 451 kts 306°
2026-05-08 05:08 31.90900 28.77953 38164 ft 451 kts 306°
2026-05-08 05:09 31.94542 28.71938 38165 ft 450 kts 306°
2026-05-08 05:09 31.98151 28.65969 38169 ft 450 kts 306°
2026-05-08 05:10 32.03588 28.56957 38163 ft 449 kts 306°
2026-05-08 05:11 32.07210 28.50941 38163 ft 449 kts 306°
2026-05-08 05:11 32.10815 28.44945 38167 ft 448 kts 306°
2026-05-08 05:12 32.14418 28.38944 38167 ft 447 kts 306°
2026-05-08 05:12 32.18007 28.32956 38166 ft 447 kts 306°
2026-05-08 05:13 32.21564 28.27011 38179 ft 446 kts 306°
2026-05-08 05:13 32.25145 28.21017 38184 ft 445 kts 306°
2026-05-08 05:14 32.28716 28.15031 38176 ft 445 kts 306°
2026-05-08 05:14 32.32194 28.09191 38173 ft 444 kts 306°
2026-05-08 05:14 32.33968 28.06207 37836 ft 440 kts 307°
2026-05-08 05:15 32.35691 28.03305 37987 ft 424 kts 307°
2026-05-08 05:15 32.37375 28.00472 38106 ft 420 kts 307°
2026-05-08 05:15 32.39065 27.97630 38169 ft 424 kts 307°
2026-05-08 05:16 32.42472 27.91881 38174 ft 427 kts 307°
2026-05-08 05:16 32.45867 27.86146 38174 ft 427 kts 307°
2026-05-08 05:17 32.49276 27.80378 38173 ft 427 kts 307°
2026-05-08 05:17 32.52676 27.74617 38169 ft 426 kts 306°
2026-05-08 05:18 32.56073 27.68854 38165 ft 426 kts 306°
2026-05-08 05:18 32.59465 27.63087 38166 ft 426 kts 306°
2026-05-08 05:19 32.62859 27.57309 38164 ft 427 kts 306°
2026-05-08 05:19 32.66260 27.51512 38168 ft 428 kts 306°
2026-05-08 05:20 32.69662 27.45703 38172 ft 428 kts 306°
2026-05-08 05:20 32.73035 27.39929 38174 ft 428 kts 306°
2026-05-08 05:21 32.75873 27.35051 38169 ft 429 kts 306°
2026-05-08 05:21 32.79815 27.28275 38166 ft 429 kts 306°
2026-05-08 05:22 32.82636 27.23416 38169 ft 429 kts 305°
2026-05-08 05:22 32.86027 27.17567 38168 ft 429 kts 305°
2026-05-08 05:23 32.89419 27.11707 38172 ft 430 kts 305°
2026-05-08 05:23 32.92808 27.05845 38170 ft 430 kts 305°
2026-05-08 05:24 32.96197 26.99971 38170 ft 430 kts 305°
2026-05-08 05:24 32.99581 26.94092 38166 ft 430 kts 305°
2026-05-08 05:25 33.02961 26.88201 38167 ft 430 kts 305°
2026-05-08 05:25 33.06340 26.82306 38164 ft 431 kts 304°
2026-05-08 05:26 33.09719 26.76399 38166 ft 431 kts 304°
2026-05-08 05:26 33.13077 26.70522 38162 ft 431 kts 304°
2026-05-08 05:27 33.16453 26.64603 38165 ft 431 kts 304°
2026-05-08 05:27 33.19827 26.58679 38163 ft 431 kts 304°
2026-05-08 05:28 33.23193 26.52759 38162 ft 429 kts 304°
2026-05-08 05:28 33.26549 26.46846 38157 ft 430 kts 304°
2026-05-08 05:29 33.29910 26.40916 38161 ft 431 kts 304°
2026-05-08 05:29 33.33265 26.34987 38164 ft 431 kts 304°
2026-05-08 05:30 33.36623 26.29043 38165 ft 431 kts 304°
2026-05-08 05:30 33.39971 26.23106 38164 ft 430 kts 303°
2026-05-08 05:31 33.43316 26.17166 38162 ft 430 kts 303°
2026-05-08 05:31 33.46658 26.11221 38164 ft 430 kts 303°
2026-05-08 05:32 33.49992 26.05280 38163 ft 430 kts 303°
2026-05-08 05:32 33.53303 25.99373 38157 ft 428 kts 303°
2026-05-08 05:33 33.56641 25.93405 38163 ft 429 kts 303°
2026-05-08 05:33 33.59942 25.87496 38158 ft 429 kts 303°
2026-05-08 05:34 33.63255 25.81555 38156 ft 428 kts 303°
2026-05-08 05:34 33.66566 25.75607 38163 ft 428 kts 303°
2026-05-08 05:35 33.69875 25.69655 38162 ft 428 kts 303°
2026-05-08 05:35 33.73183 25.63694 38164 ft 429 kts 303°
2026-05-08 05:36 33.76489 25.57727 38165 ft 429 kts 303°
2026-05-08 05:36 33.79787 25.51762 38164 ft 429 kts 302°
2026-05-08 05:37 33.83070 25.45818 38157 ft 429 kts 302°
2026-05-08 05:37 33.86373 25.39827 38163 ft 429 kts 302°
2026-05-08 05:38 33.89673 25.33832 38165 ft 429 kts 302°
2026-05-08 05:38 33.92963 25.27843 38162 ft 428 kts 302°
2026-05-08 05:39 33.96248 25.21855 38165 ft 428 kts 302°
2026-05-08 05:39 33.99482 25.15822 38168 ft 427 kts 297°
2026-05-08 05:40 34.01732 25.09241 38157 ft 429 kts 290°
2026-05-08 05:40 34.03776 25.02476 38158 ft 429 kts 290°
2026-05-08 05:41 34.05804 24.95702 38163 ft 430 kts 290°
2026-05-08 05:41 34.07836 24.88925 38164 ft 430 kts 290°
2026-05-08 05:42 34.09862 24.82138 38161 ft 430 kts 290°
2026-05-08 05:42 34.11891 24.75333 38162 ft 430 kts 290°
2026-05-08 05:43 34.13914 24.68530 38160 ft 430 kts 290°
2026-05-08 05:43 34.15919 24.61772 38162 ft 430 kts 290°
2026-05-08 05:44 34.17935 24.54959 38163 ft 430 kts 290°
2026-05-08 05:44 34.19946 24.48149 38165 ft 430 kts 290°
2026-05-08 05:45 34.21954 24.41334 38160 ft 431 kts 289°
2026-05-08 05:45 34.23906 24.34692 38161 ft 431 kts 289°
2026-05-08 05:46 34.25908 24.27863 38157 ft 431 kts 289°
2026-05-08 05:46 34.27896 24.21068 38157 ft 431 kts 289°
2026-05-08 05:47 34.29894 24.14222 38158 ft 431 kts 289°
2026-05-08 05:47 34.31885 24.07384 38155 ft 431 kts 289°
2026-05-08 05:48 34.33871 24.00546 38153 ft 430 kts 289°
2026-05-08 05:48 34.35851 23.93714 38152 ft 430 kts 289°
2026-05-08 05:49 34.37816 23.86915 38149 ft 429 kts 289°
2026-05-08 05:49 34.39785 23.80089 38147 ft 429 kts 289°
2026-05-08 05:50 34.41747 23.73267 38147 ft 429 kts 289°
2026-05-08 05:50 34.43707 23.66437 38145 ft 429 kts 289°
2026-05-08 05:51 34.45662 23.59609 38146 ft 429 kts 289°
2026-05-08 05:51 34.47612 23.52782 38145 ft 429 kts 289°
2026-05-08 05:52 34.49557 23.45955 38145 ft 428 kts 289°
2026-05-08 05:52 34.51497 23.39132 38146 ft 427 kts 288°
2026-05-08 05:53 34.53428 23.32322 38145 ft 426 kts 288°
2026-05-08 05:53 34.55339 23.25564 38143 ft 425 kts 288°
2026-05-08 05:54 34.57254 23.18780 38140 ft 425 kts 288°
2026-05-08 05:54 34.59165 23.11990 38140 ft 424 kts 288°
2026-05-08 05:55 34.61070 23.05206 38138 ft 424 kts 288°
2026-05-08 05:55 34.62740 22.98363 38137 ft 422 kts 280°
2026-05-08 05:56 34.63674 22.91328 38135 ft 422 kts 279°
2026-05-08 05:56 34.64600 22.84304 38135 ft 421 kts 279°
2026-05-08 05:57 34.65511 22.77334 38137 ft 420 kts 279°
2026-05-08 05:57 34.66424 22.70334 38135 ft 419 kts 279°
2026-05-08 05:58 34.67330 22.63345 38134 ft 418 kts 279°
2026-05-08 05:58 34.68229 22.56382 38136 ft 417 kts 279°
2026-05-08 05:59 34.69123 22.49427 38140 ft 416 kts 279°
2026-05-08 05:59 34.70011 22.42483 38135 ft 416 kts 279°
2026-05-08 06:00 34.70895 22.35541 38131 ft 415 kts 279°
2026-05-08 06:00 34.71773 22.28613 38134 ft 415 kts 278°
2026-05-08 06:01 34.72649 22.21673 38132 ft 415 kts 278°
2026-05-08 06:01 34.73514 22.14780 38136 ft 415 kts 278°
2026-05-08 06:02 34.74380 22.07850 38132 ft 414 kts 278°
2026-05-08 06:02 34.75243 22.00908 38131 ft 415 kts 278°
2026-05-08 06:03 34.76104 21.93956 38126 ft 416 kts 278°
2026-05-08 06:03 34.76962 21.86988 38124 ft 417 kts 278°
2026-05-08 06:04 34.77811 21.80060 38122 ft 417 kts 278°
2026-05-08 06:04 34.78664 21.73070 38125 ft 417 kts 277°
2026-05-08 06:05 34.79512 21.66088 38123 ft 417 kts 277°
2026-05-08 06:05 34.80355 21.59107 38115 ft 417 kts 277°
2026-05-08 06:06 34.81195 21.52120 38110 ft 417 kts 277°
2026-05-08 06:06 34.82031 21.45133 38111 ft 417 kts 277°
2026-05-08 06:07 34.82899 21.38155 38117 ft 417 kts 281°
2026-05-08 06:07 34.84043 21.31269 38102 ft 417 kts 279°
2026-05-08 06:08 34.85178 21.24330 38103 ft 418 kts 280°
2026-05-08 06:08 34.86128 21.18553 38101 ft 418 kts 279°
2026-05-08 06:09 34.87260 21.11597 38099 ft 418 kts 279°
2026-05-08 06:09 34.88391 21.04652 38096 ft 418 kts 279°
2026-05-08 06:10 34.89516 20.97702 38098 ft 418 kts 279°
2026-05-08 06:10 34.90638 20.90749 38094 ft 418 kts 279°
2026-05-08 06:11 34.91756 20.83788 38089 ft 418 kts 279°
2026-05-08 06:11 34.92871 20.76831 38090 ft 418 kts 279°
2026-05-08 06:12 34.93980 20.69878 38087 ft 418 kts 279°
2026-05-08 06:12 34.95085 20.62920 38087 ft 418 kts 279°
2026-05-08 06:13 34.96186 20.55963 38092 ft 418 kts 279°
2026-05-08 06:13 34.97284 20.48998 38089 ft 418 kts 279°
2026-05-08 06:14 34.98373 20.42065 38091 ft 418 kts 279°
2026-05-08 06:14 34.99464 20.35093 38087 ft 419 kts 279°
2026-05-08 06:15 35.00546 20.28153 38092 ft 418 kts 278°
2026-05-08 06:15 35.01628 20.21177 38090 ft 418 kts 278°
2026-05-08 06:16 35.02708 20.14194 38090 ft 418 kts 278°
2026-05-08 06:16 35.03777 20.07252 38095 ft 418 kts 278°
2026-05-08 06:16 35.04311 20.03774 38405 ft 415 kts 278°
2026-05-08 06:17 35.05366 19.96884 38975 ft 412 kts 278°
2026-05-08 06:17 35.05891 19.93441 39141 ft 413 kts 278°
2026-05-08 06:17 35.06417 19.89986 39317 ft 414 kts 278°
2026-05-08 06:18 35.06944 19.86526 39483 ft 415 kts 278°
2026-05-08 06:18 35.07470 19.83058 39655 ft 415 kts 278°
2026-05-08 06:18 35.07995 19.79591 39837 ft 416 kts 278°
2026-05-08 06:18 35.08520 19.76114 40008 ft 416 kts 278°
2026-05-08 06:19 35.09574 19.69117 40076 ft 420 kts 278°
2026-05-08 06:19 35.10621 19.62142 40080 ft 416 kts 278°
2026-05-08 06:20 35.11657 19.55204 40079 ft 415 kts 278°
2026-05-08 06:20 35.12688 19.48279 40075 ft 414 kts 278°
2026-05-08 06:21 35.13715 19.41351 40082 ft 414 kts 278°
2026-05-08 06:21 35.14737 19.34429 40073 ft 414 kts 278°
2026-05-08 06:22 35.15747 19.27558 40072 ft 413 kts 278°
2026-05-08 06:22 35.16759 19.20645 40068 ft 413 kts 278°
2026-05-08 06:23 35.17765 19.13744 40068 ft 412 kts 278°
2026-05-08 06:23 35.18768 19.06836 40074 ft 413 kts 278°
2026-05-08 06:24 35.19767 18.99926 40072 ft 412 kts 278°
2026-05-08 06:24 35.20762 18.93019 40068 ft 412 kts 278°
2026-05-08 06:25 35.21751 18.86115 40068 ft 412 kts 278°
2026-05-08 06:25 35.22738 18.79205 40065 ft 412 kts 278°
2026-05-08 06:26 35.23695 18.72476 40062 ft 412 kts 277°
2026-05-08 06:26 35.24673 18.65568 40059 ft 411 kts 277°
2026-05-08 06:27 35.25638 18.58726 40054 ft 410 kts 277°
2026-05-08 06:27 35.26604 18.51845 40054 ft 410 kts 277°
2026-05-08 06:28 35.27571 18.44970 40045 ft 410 kts 277°
2026-05-08 06:28 35.28542 18.38104 40045 ft 410 kts 277°
2026-05-08 06:29 35.29505 18.31223 40041 ft 410 kts 277°
2026-05-08 06:29 35.30466 18.24348 40038 ft 410 kts 277°
2026-05-08 06:30 35.31422 18.17473 40029 ft 409 kts 277°
2026-05-08 06:30 35.32372 18.10611 40025 ft 409 kts 277°
2026-05-08 06:31 35.33318 18.03754 40019 ft 408 kts 277°
2026-05-08 06:31 35.34259 17.96899 40012 ft 408 kts 277°
2026-05-08 06:32 35.35194 17.90060 40009 ft 408 kts 277°
2026-05-08 06:32 35.36122 17.83238 40006 ft 408 kts 277°
2026-05-08 06:33 35.37052 17.76373 40003 ft 408 kts 277°
2026-05-08 06:33 35.37979 17.69503 40000 ft 409 kts 277°
2026-05-08 06:34 35.38902 17.62631 39995 ft 408 kts 277°
2026-05-08 06:34 35.39821 17.55762 39991 ft 408 kts 277°
2026-05-08 06:35 35.40736 17.48883 39985 ft 408 kts 277°
2026-05-08 06:35 35.41647 17.42012 39988 ft 408 kts 277°
2026-05-08 06:36 35.42548 17.35180 39986 ft 409 kts 277°
2026-05-08 06:36 35.43451 17.28301 39984 ft 409 kts 276°
2026-05-08 06:37 35.44338 17.21409 39982 ft 408 kts 276°
2026-05-08 06:37 35.45221 17.14529 39983 ft 408 kts 276°
2026-05-08 06:38 35.46099 17.07651 39979 ft 408 kts 276°
2026-05-08 06:38 35.46973 17.00772 39977 ft 408 kts 276°
2026-05-08 06:39 35.47843 16.93895 39981 ft 407 kts 276°
2026-05-08 06:39 35.48708 16.87024 39975 ft 408 kts 276°
2026-05-08 06:40 35.49570 16.80150 39978 ft 407 kts 276°
2026-05-08 06:40 35.50422 16.73312 39979 ft 407 kts 276°
2026-05-08 06:41 35.51275 16.66443 39980 ft 408 kts 276°
2026-05-08 06:41 35.52125 16.59559 39979 ft 407 kts 276°
2026-05-08 06:42 35.52970 16.52682 39980 ft 407 kts 275°
2026-05-08 06:42 35.53812 16.45807 39979 ft 407 kts 275°
2026-05-08 06:43 35.54650 16.38920 39979 ft 407 kts 275°
2026-05-08 06:43 35.55479 16.32081 39980 ft 408 kts 275°
2026-05-08 06:44 35.56311 16.25181 39982 ft 408 kts 275°
2026-05-08 06:44 35.57139 16.18279 39977 ft 408 kts 275°
2026-05-08 06:45 35.57963 16.11373 39984 ft 409 kts 275°
2026-05-08 06:45 35.58785 16.04452 39982 ft 409 kts 275°
2026-05-08 06:46 35.59598 15.97579 39979 ft 410 kts 275°
2026-05-08 06:46 35.60371 15.91006 39987 ft 410 kts 275°
2026-05-08 06:47 35.61183 15.84063 39983 ft 411 kts 275°
2026-05-08 06:47 35.61994 15.77099 39987 ft 411 kts 275°
2026-05-08 06:48 35.62800 15.70141 39985 ft 411 kts 274°
2026-05-08 06:48 35.63623 15.63163 39984 ft 413 kts 278°
2026-05-08 06:49 35.65320 15.56357 39978 ft 419 kts 284°
2026-05-08 06:49 35.67262 15.49610 39982 ft 419 kts 284°
2026-05-08 06:50 35.69223 15.42838 39976 ft 421 kts 284°
2026-05-08 06:50 35.71179 15.36044 39980 ft 421 kts 284°
2026-05-08 06:51 35.73137 15.29231 39976 ft 423 kts 284°
2026-05-08 06:51 35.74764 15.23559 39975 ft 423 kts 284°
2026-05-08 06:52 35.77043 15.15591 39969 ft 425 kts 284°
2026-05-08 06:52 35.79005 15.08718 39974 ft 426 kts 284°
2026-05-08 06:53 35.80965 15.01831 39962 ft 426 kts 284°
2026-05-08 06:53 35.82594 14.96094 39967 ft 427 kts 284°
2026-05-08 06:54 35.84557 14.89164 39967 ft 428 kts 284°
2026-05-08 06:54 35.86516 14.82233 39975 ft 429 kts 284°
2026-05-08 06:55 35.88478 14.75272 39974 ft 430 kts 285°
2026-05-08 06:55 35.90431 14.68323 39975 ft 431 kts 285°
2026-05-08 06:56 35.92396 14.61318 39971 ft 432 kts 285°
2026-05-08 06:56 35.94358 14.54303 39969 ft 432 kts 285°
2026-05-08 06:57 35.96318 14.47277 39977 ft 432 kts 285°
2026-05-08 06:57 35.98274 14.40248 39978 ft 433 kts 285°
2026-05-08 06:58 36.00217 14.33249 39975 ft 433 kts 285°
2026-05-08 06:58 36.02166 14.26208 39973 ft 433 kts 285°
2026-05-08 06:59 36.03641 14.19065 39975 ft 428 kts 273°
2026-05-08 06:59 36.03834 14.11726 39975 ft 427 kts 269°
2026-05-08 07:00 36.03922 14.04400 39969 ft 426 kts 269°
2026-05-08 07:00 36.03995 13.97062 39965 ft 426 kts 269°
2026-05-08 07:01 36.04070 13.89722 39963 ft 427 kts 269°
2026-05-08 07:01 36.04137 13.82377 39966 ft 427 kts 269°
2026-05-08 07:02 36.04200 13.75087 39969 ft 427 kts 269°
2026-05-08 07:02 36.04259 13.67736 39967 ft 428 kts 269°
2026-05-08 07:03 36.04314 13.60373 39963 ft 429 kts 269°
2026-05-08 07:03 36.04364 13.52991 39970 ft 429 kts 269°
2026-05-08 07:04 36.04410 13.45619 39968 ft 429 kts 269°
2026-05-08 07:04 36.04451 13.38252 39963 ft 429 kts 269°
2026-05-08 07:05 36.04488 13.30941 39963 ft 428 kts 269°
2026-05-08 07:05 36.04520 13.23583 39959 ft 428 kts 269°
2026-05-08 07:06 36.04550 13.16224 39961 ft 428 kts 269°
2026-05-08 07:06 36.04577 13.08880 39962 ft 427 kts 269°
2026-05-08 07:07 36.04599 13.01542 39965 ft 427 kts 269°
2026-05-08 07:07 36.04617 12.94218 39960 ft 426 kts 269°
2026-05-08 07:08 36.04630 12.86944 39962 ft 427 kts 269°
2026-05-08 07:08 36.04638 12.79586 39965 ft 428 kts 269°
2026-05-08 07:09 36.04643 12.72230 39972 ft 428 kts 269°
2026-05-08 07:09 36.04642 12.64868 39974 ft 428 kts 269°
2026-05-08 07:10 36.04638 12.57507 39972 ft 428 kts 269°
2026-05-08 07:10 36.04629 12.50142 39968 ft 429 kts 269°
2026-05-08 07:11 36.04615 12.42771 39971 ft 429 kts 269°
2026-05-08 07:11 36.04597 12.35448 39972 ft 429 kts 269°
2026-05-08 07:12 36.04574 12.28068 39974 ft 429 kts 269°
2026-05-08 07:12 36.04547 12.20695 39974 ft 429 kts 269°
2026-05-08 07:13 36.04515 12.13324 39974 ft 429 kts 269°
2026-05-08 07:13 36.04479 12.05955 39972 ft 429 kts 269°
2026-05-08 07:14 36.04438 11.98583 39971 ft 429 kts 269°